Regional Weather Roundup
Issued by NWS Spokane, WA

Home | Current Version | Previous Version | Text Only | Print | Product List | Glossary On
Versions: 1 2 3 4 5 6 7 8 9 10 11 12 13 14 15 16 17 18 19 20 21 22 23 24 25 26 27 28 29 30 31 32 33 34 35 36 37 38 39 40 41 42 43 44 45 46 47 48 49 50
000
NZUS01 KOTX 060310
RWROTX
EASTERN WASHINGTON/NORTHERN IDAHO ROUNDUP
NATIONAL WEATHER SERVICE, SPOKANE WA
800 PM PDT SUN JUL 05 2015

Note: "fair" indicated few or no clouds below 12,000 feet with no
significant weather and/or obstructions to visibility.

...NORTHEAST WASHINGTON AND NORTHERN IDAHO PANHANDLE...

CITY           SKY/WX    TMP DP  RH WIND       PRES   REMARKS
SPOKANE INTL   PTCLDY    82  39  21 NE16      29.95R
SPOKANE DOWNTO CLEAR     82  43  25 NE8G17    29.94S
COEUR D ALENE  CLEAR     79  45  29 NE14      29.97R
DEER PARK      CLEAR     79  43  27 NE10G18   29.97R
SANDPOINT      CLEAR     73  43  33 NE6       30.00S
BONNERS FERRY  FAIR      73  43  33 E6        30.03S

...SOUTHEAST WASHINGTON AND SOUTHERN IDAHO PANHANDLE...

CITY           SKY/WX    TMP DP  RH WIND       PRES   REMARKS
WALLA WALLA    CLEAR     92  47  21 S9        29.80S
PULLMAN/MOSCOW CLEAR     79  49  34 N10       29.94R
LEWISTON       CLEAR     89  48  24 N14G22    29.82R
LOWELL           N/A     79  57  46 CALM      29.81R

...COLUMBIA BASIN...

CITY           SKY/WX    TMP DP  RH WIND       PRES   REMARKS
EPHRATA        CLEAR     94  27   9 NE5       29.83R
MOSES LAKE     CLEAR     94  31  10 NE5       29.83R
TRI CITIES     CLEAR     86  60  41 N8        29.76S
HERMISTON      CLEAR     94  43  17 N5        29.77R HX  90
PENDLETON      CLEAR     90  42  18 N7        29.83R

...EAST SLOPES CASCADES...

CITY           SKY/WX    TMP DP  RH WIND       PRES   REMARKS
THE DALLES     CLEAR     94  53  25 NW16G22   29.75R HX  91
YAKIMA         CLEAR     91  46  21 S5        29.81R
ELLENSBURG     CLEAR     88  43  20 E7        29.85S
WENATCHEE      CLEAR     92  36  14 SE7       29.82R
OMAK           CLEAR     88  28  11 N8        29.85R

...SOUTHERN BRITISH COLUMBIA...

CITY           SKY/WX    TMP DP  RH WIND       PRES   REMARKS
PENTICTON      CLEAR     82  46  28 N9        29.87R
CASTLEGAR      PTCLDY    82  48  30 NW3       29.90R
CRANBROOK      PTCLDY    70  39  32 SE13      30.11R

...WESTERN MONTANA...

CITY           SKY/WX    TMP DP  RH WIND       PRES   REMARKS
MISSOULA       CLOUDY    66  46  48 N20G26    30.10R

...NEIGHBORING CITIES...

CITY           SKY/WX    TMP DP  RH WIND       PRES   REMARKS
SEATTLE        PTCLDY    86  45  23 NW7       29.85R
CALGARY        MOCLDY    57  45  62 E7        30.23R



USA.gov is the U.S. government's official web portal to all federal, state and local government web resources and services.